﻿_id,日時,平均風速(m/s),平均風向,最大瞬間風速(m/s),最大風速時風向,気温(℃),湿度(%),10分間移動積算雨量(mm),1時間移動積算雨量(mm),日雨量(mm),累計雨量(mm),日射(日積算)(MJ/m2),日照(日積算)(min),現地気圧(hPa),海面気圧(hPa)
1,2024-06-24T00:00:00,3.1,南,4.9,南,24.6,97.6,0,0,22,30,4.67,0,989.6,1002.8
2,2024-06-24T00:01:00,3.1,南,4.9,南,24.6,97.7,0,0,0,30,0,0,989.7,1002.9
3,2024-06-24T00:02:00,3.2,南,4.9,南,24.6,97.7,0,0,0,30,0,0,989.7,1002.9
4,2024-06-24T00:03:00,3.2,南,4.9,南,24.6,97.7,0,0,0,30,0,0,989.7,1002.9
5,2024-06-24T00:04:00,3.2,南,4.8,南,24.6,97.7,0,0,0,30,0,0,989.7,1002.9
6,2024-06-24T00:05:00,3.2,南,4.8,南,24.6,97.8,0,0,0,30,0,0,989.7,1002.9
7,2024-06-24T00:06:00,3.2,南,4.8,南,24.6,97.8,0,0,0,30,0,0,989.8,1003
8,2024-06-24T00:07:00,3.1,南,4.8,南,24.6,97.8,0,0,0,30,0,0,989.7,1002.9
9,2024-06-24T00:08:00,2.9,南,4.8,南,24.6,97.8,0,0,0,30,0,0,989.7,1002.9
10,2024-06-24T00:09:00,2.7,南,4.8,南,24.5,97.8,0,0,0,30,0,0,989.7,1002.9
11,2024-06-24T00:10:00,2.6,南,4.8,南,24.5,97.9,0,0,0,30,0,0,989.7,1002.9
12,2024-06-24T00:11:00,2.4,南,4.8,南,24.5,97.9,0,0,0,30,0,0,989.7,1002.9
13,2024-06-24T00:12:00,2.2,南,4.8,南,24.5,97.9,0,0,0,30,0,0,989.6,1002.8
14,2024-06-24T00:13:00,1.9,南南東,4.1,南,24.5,98,0,0,0,30,0,0,989.7,1002.9
15,2024-06-24T00:14:00,1.7,南南東,4.1,南,24.5,98,0,0,0,30,0,0,989.7,1002.9
16,2024-06-24T00:15:00,1.5,南南東,4.1,南,24.4,98,0,0,0,30,0,0,989.7,1002.9
17,2024-06-24T00:16:00,1.3,南南東,3.7,南,24.4,98.1,0,0,0,30,0,0,989.6,1002.8
18,2024-06-24T00:17:00,1.2,南南東,3,南南東,24.4,98.1,0,0,0,30,0,0,989.6,1002.8
19,2024-06-24T00:18:00,1.1,南南東,3,南南東,24.4,98.2,0,0,0,30,0,0,989.6,1002.8
20,2024-06-24T00:19:00,1.1,南南東,3,南南東,24.4,98.2,0,0,0,30,0,0,989.6,1002.8
21,2024-06-24T00:20:00,0.9,南南東,2.8,南南東,24.3,98.2,0,0,0,30,0,0,989.6,1002.8
22,2024-06-24T00:21:00,0.9,南南東,2.8,南南東,24.3,98.2,0,0,0,30,0,0,989.7,1002.9
23,2024-06-24T00:22:00,0.9,南南東,2.8,南南東,24.3,98.3,0,0,0,30,0,0,989.7,1002.9
24,2024-06-24T00:23:00,0.9,南南東,2.8,南南東,24.3,98.3,0,0,0,30,0,0,989.7,1002.9
25,2024-06-24T00:24:00,0.9,南南東,2.8,南南東,24.3,98.3,0,0,0,30,0,0,989.7,1002.9
26,2024-06-24T00:25:00,0.9,南南東,2.6,南,24.3,98.3,0,0,0,30,0,0,989.7,1002.9
27,2024-06-24T00:26:00,0.8,南南東,2.5,南東,24.3,98.4,0,0,0,30,0,0,989.7,1002.9
28,2024-06-24T00:27:00,0.7,南南東,2.5,南東,24.3,98.4,0,0,0,30,0,0,989.7,1002.9
29,2024-06-24T00:28:00,0.7,南南東,2.5,南東,24.3,98.4,0,0,0,30,0,0,989.6,1002.8
30,2024-06-24T00:29:00,0.7,南南東,1.8,南南東,24.3,98.4,0,0,0,30,0,0,989.6,1002.8
31,2024-06-24T00:30:00,0.7,南南東,2,南,24.3,98.4,0,0,0,30,0,0,989.6,1002.8
32,2024-06-24T00:31:00,0.7,南南東,2,南,24.3,98.4,0,0,0,30,0,0,989.6,1002.8
33,2024-06-24T00:32:00,0.7,南南東,2,南,24.3,98.4,0,0,0,30,0,0,989.7,1002.9
34,2024-06-24T00:33:00,0.6,南南東,2,南,24.3,98.4,0,0,0,30,0,0,989.7,1002.9
35,2024-06-24T00:34:00,0.6,南南東,2,南,24.2,98.4,0,0,0,30,0,0,989.6,1002.9
36,2024-06-24T00:35:00,0.6,南南東,2,南,24.2,98.4,0,0,0,30,0,0,989.6,1002.9
37,2024-06-24T00:36:00,0.6,南南東,2,南,24.2,98.4,0,0,0,30,0,0,989.6,1002.9
38,2024-06-24T00:37:00,0.6,南南東,2,南,24.2,98.5,0,0,0,30,0,0,989.6,1002.9
39,2024-06-24T00:38:00,0.6,南南東,2,南,24.2,98.5,0,0,0,30,0,0,989.6,1002.9
40,2024-06-24T00:39:00,0.7,南,2,南,24.2,98.5,0,0,0,30,0,0,989.6,1002.9
41,2024-06-24T00:40:00,0.6,南,1.8,南,24.2,98.5,0,0,0,30,0,0,989.6,1002.9
42,2024-06-24T00:41:00,0.7,南,1.5,南,24.2,98.5,0,0,0,30,0,0,989.7,1003
43,2024-06-24T00:42:00,0.7,南,1.5,南,24.2,98.5,0,0,0,30,0,0,989.7,1003
44,2024-06-24T00:43:00,0.7,南南西,1.5,南,24.1,98.5,0,0,0,30,0,0,989.6,1002.9
45,2024-06-24T00:44:00,0.7,南南西,1.5,南,24.1,98.6,0,0,0,30,0,0,989.7,1003
46,2024-06-24T00:45:00,0.7,南南西,1.5,南,24.1,98.7,0,0,0,30,0,0,989.6,1002.9
47,2024-06-24T00:46:00,0.7,南西,1.5,南,24,98.7,0,0,0,30,0,0,989.7,1003
48,2024-06-24T00:47:00,0.8,南西,1.5,南,24,98.7,0,0,0,30,0,0,989.6,1002.9
49,2024-06-24T00:48:00,0.8,西南西,1.4,南,24,98.8,0,0,0,30,0,0,989.6,1002.9
50,2024-06-24T00:49:00,0.7,西南西,1.3,南南西,24,98.8,0,0,0,30,0,0,989.6,1002.9
51,2024-06-24T00:50:00,0.7,西,1.3,南南西,24,98.9,0,0,0,30,0,0,989.6,1002.9
52,2024-06-24T00:51:00,0.7,西,1.3,南南西,24,98.9,0,0,0,30,0,0,989.6,1002.9
53,2024-06-24T00:52:00,0.7,西,1.3,南南西,23.9,98.9,0,0,0,30,0,0,989.6,1002.9
54,2024-06-24T00:53:00,0.7,西,1.6,西,23.9,98.9,0,0,0,30,0,0,989.6,1002.9
55,2024-06-24T00:54:00,0.8,西,1.7,西,23.9,98.9,0,0,0,30,0,0,989.7,1003
56,2024-06-24T00:55:00,0.9,西,1.7,西,23.8,99,0,0,0,30,0,0,989.7,1003
57,2024-06-24T00:56:00,1,西,1.8,西,23.7,99,0,0,0,30,0,0,989.7,1003
58,2024-06-24T00:57:00,1.1,西,2,西南西,23.7,99,0,0,0,30,0,0,989.7,1003
59,2024-06-24T00:58:00,1.2,西,2,西南西,23.7,99.1,0,0,0,30,0,0,989.7,1003
60,2024-06-24T00:59:00,1.3,西,2,西南西,23.8,99.1,0,0,0,30,0,0,989.6,1002.9
61,2024-06-24T01:00:00,1.4,西,2,西南西,23.8,99.2,0,0,0,30,0,0,989.6,1002.9
62,2024-06-24T01:01:00,1.5,西,2.1,西,23.7,99.2,0,0,0,30,0,0,989.6,1002.9
63,2024-06-24T01:02:00,1.6,西,2.4,西,23.7,99.2,0,0,0,30,0,0,989.6,1002.9
64,2024-06-24T01:03:00,1.6,西,2.4,西,23.7,99.2,0,0,0,30,0,0,989.6,1002.9
65,2024-06-24T01:04:00,1.6,西,2.4,西,23.7,99.2,0,0,0,30,0,0,989.6,1002.9
66,2024-06-24T01:05:00,1.7,西,2.4,西,23.7,99.3,0,0,0,30,0,0,989.6,1002.9
67,2024-06-24T01:06:00,1.7,西,2.6,西南西,23.7,99.3,0,0,0,30,0,0,989.5,1002.8
68,2024-06-24T01:07:00,1.8,西,2.6,西南西,23.7,99.3,0,0,0,30,0,0,989.5,1002.8
69,2024-06-24T01:08:00,1.8,西,2.6,西南西,23.7,99.3,0,0,0,30,0,0,989.5,1002.8
70,2024-06-24T01:09:00,1.8,西,2.6,西南西,23.7,99.3,0,0,0,30,0,0,989.5,1002.8
71,2024-06-24T01:10:00,1.9,西,2.6,西南西,23.7,99.3,0,0,0,30,0,0,989.5,1002.8
72,2024-06-24T01:11:00,1.8,西,2.6,西南西,23.7,99.3,0,0,0,30,0,0,989.5,1002.8
73,2024-06-24T01:12:00,1.8,西,2.6,西南西,23.6,99.3,0,0,0,30,0,0,989.6,1002.9
74,2024-06-24T01:13:00,1.8,西,2.6,西南西,23.6,99.3,0,0,0,30,0,0,989.6,1002.9
75,2024-06-24T01:14:00,1.8,西,2.6,西南西,23.6,99.3,0,0,0,30,0,0,989.6,1002.9
76,2024-06-24T01:15:00,1.8,西,2.6,西南西,23.6,99.4,0,0,0,30,0,0,989.6,1002.9
77,2024-06-24T01:16:00,1.7,西,2.5,西南西,23.6,99.4,0,0,0,30,0,0,989.6,1002.9
78,2024-06-24T01:17:00,1.6,西,2.3,西,23.6,99.4,0,0,0,30,0,0,989.6,1002.9
79,2024-06-24T01:18:00,1.6,西,2.4,西,23.6,99.4,0,0,0,30,0,0,989.6,1002.9
80,2024-06-24T01:19:00,1.7,西,2.4,西,23.6,99.4,0,0,0,30,0,0,989.6,1002.9
81,2024-06-24T01:20:00,1.7,西,2.4,西,23.6,99.4,0,0,0,30,0,0,989.6,1002.9
82,2024-06-24T01:21:00,1.7,西,2.4,西,23.5,99.3,0,0,0,30,0,0,989.6,1002.9
83,2024-06-24T01:22:00,1.7,西,2.4,西,23.5,99.4,0,0,0,30,0,0,989.6,1002.9
84,2024-06-24T01:23:00,1.7,西,2.4,西,23.6,99.4,0,0,0,30,0,0,989.6,1002.9
85,2024-06-24T01:24:00,1.7,西,2.4,西,23.5,99.4,0,0,0,30,0,0,989.6,1002.9
86,2024-06-24T01:25:00,1.6,西,2.4,西,23.5,99.4,0,0,0,30,0,0,989.6,1002.9
87,2024-06-24T01:26:00,1.5,西,2.4,西,23.6,99.4,0,0,0,30,0,0,989.6,1002.9
88,2024-06-24T01:27:00,1.6,西,2.4,西,23.5,99.4,0,0,0,30,0,0,989.7,1003
89,2024-06-24T01:28:00,1.5,西,2.2,西,23.5,99.4,0,0,0,30,0,0,989.7,1003
90,2024-06-24T01:29:00,1.5,西南西,2.2,西,23.5,99.4,0,0,0,30,0,0,989.7,1003
91,2024-06-24T01:30:00,1.5,西南西,2.4,西南西,23.6,99.5,0,0,0,30,0,0,989.8,1003.1
92,2024-06-24T01:31:00,1.5,西,2.4,西南西,23.6,99.5,0,0,0,30,0,0,989.8,1003.1
93,2024-06-24T01:32:00,1.4,西南西,2.4,西南西,23.6,99.5,0,0,0,30,0,0,989.9,1003.2
94,2024-06-24T01:33:00,1.3,西,2.4,西南西,23.6,99.5,0,0,0,30,0,0,989.9,1003.2
95,2024-06-24T01:34:00,1.3,西,2.4,西南西,23.7,99.5,0,0,0,30,0,0,989.9,1003.2
96,2024-06-24T01:35:00,1.3,西,2.4,西南西,23.6,99.4,0,0,0,30,0,0,989.9,1003.2
97,2024-06-24T01:36:00,1.3,西,2.4,西南西,23.7,99.4,0,0,0,30,0,0,989.9,1003.2
98,2024-06-24T01:37:00,1.2,西,2.4,西南西,23.6,99.4,0,0,0,30,0,0,989.9,1003.2
99,2024-06-24T01:38:00,1.1,西,2.4,西南西,23.6,99.3,0,0,0,30,0,0,989.9,1003.2
100,2024-06-24T01:39:00,1,西,2.4,西南西,23.6,99.3,0,0,0,30,0,0,990,1003.3
101,2024-06-24T01:40:00,0.8,西,2,西,23.6,99.3,0,0,0,30,0,0,990,1003.3
102,2024-06-24T01:41:00,0.8,西,2,南,23.7,99.4,0,0,0,30,0,0,990,1003.3
103,2024-06-24T01:42:00,0.9,西,2.9,南,23.8,99.5,0,0,0,30,0,0,990.1,1003.4
104,2024-06-24T01:43:00,0.9,西南西,2.9,南,23.7,99.4,0,0,0,30,0,0,990.1,1003.4
105,2024-06-24T01:44:00,0.8,南西,2.9,南,23.7,99.3,0,0,0,30,0,0,990.1,1003.4
106,2024-06-24T01:45:00,0.8,南南西,2.9,南,23.8,99.4,0,0,0,30,0,0,990.1,1003.4
107,2024-06-24T01:46:00,0.7,南南西,2.9,南,23.8,99.4,0,0,0,30,0,0,990.2,1003.5
108,2024-06-24T01:47:00,0.7,南,2.9,南,23.8,99.3,0,0,0,30,0,0,990.2,1003.5
109,2024-06-24T01:48:00,0.7,南,2.9,南,23.8,99.3,0,0,0,30,0,0,990.2,1003.5
110,2024-06-24T01:49:00,0.7,南南東,2.9,南,23.9,99.3,0,0,0,30,0,0,990.3,1003.6
111,2024-06-24T01:50:00,0.8,南南東,2.9,南,23.9,99.3,0,0,0,30,0,0,990.3,1003.6
112,2024-06-24T01:51:00,0.7,南南東,2.9,南,23.9,99.3,0,0,0,30,0,0,990.4,1003.7
113,2024-06-24T01:52:00,0.6,南南東,2,南,23.8,99.2,0,0,0,30,0,0,990.4,1003.7
114,2024-06-24T01:53:00,0.6,南南東,1.6,南,23.9,99.3,0,0,0,30,0,0,990.4,1003.7
115,2024-06-24T01:54:00,0.7,南,1.7,南南西,23.9,99.2,0,0,0,30,0,0,990.4,1003.7
116,2024-06-24T01:55:00,0.7,南,1.7,南南西,23.9,99.3,0,0,0,30,0,0,990.4,1003.7
117,2024-06-24T01:56:00,0.7,南,1.7,南南西,23.9,99.3,0,0,0,30,0,0,990.5,1003.8
118,2024-06-24T01:57:00,0.8,南,1.7,南南西,24,99.3,0,0,0,30,0,0,990.5,1003.8
119,2024-06-24T01:58:00,0.9,南,2.6,南西,24,99.3,0,0,0,30,0,0,990.5,1003.8
120,2024-06-24T01:59:00,0.9,南南西,2.6,南西,23.9,99.1,0,0,0,30,0,0,990.6,1003.9
121,2024-06-24T02:00:00,1,南南西,2.6,南西,24,99.1,0,0,0,30,0,0,990.6,1003.9
122,2024-06-24T02:01:00,1,南南西,2.6,南西,23.9,99.1,0,0,0,30,0,0,990.6,1003.9
123,2024-06-24T02:02:00,1,南南西,2.6,南西,23.9,99,0,0,0,30,0,0,990.6,1003.9
124,2024-06-24T02:03:00,1,南西,2.6,南西,23.9,99,0,0,0,30,0,0,990.6,1003.9
125,2024-06-24T02:04:00,0.9,南西,2.6,南西,23.8,99,0,0,0,30,0,0,990.6,1003.9
126,2024-06-24T02:05:00,0.8,西南西,2.6,南西,23.8,99,0,0,0,30,0,0,990.6,1003.9
127,2024-06-24T02:06:00,0.7,西南西,2.6,南西,23.7,99,0,0,0,30,0,0,990.7,1004
128,2024-06-24T02:07:00,0.7,西南西,2.6,南西,23.7,99,0,0,0,30,0,0,990.7,1004
129,2024-06-24T02:08:00,0.5,西,2.3,西南西,23.7,99.1,0,0,0,30,0,0,990.7,1004
130,2024-06-24T02:09:00,0.5,西,2.1,南,23.8,99.1,0,0,0,30,0,0,990.7,1004
131,2024-06-24T02:10:00,0.4,西,1.4,南西,23.9,99.3,0,0,0,30,0,0,990.7,1004
132,2024-06-24T02:11:00,0.4,西北西,1,西,23.8,99.1,0,0,0,30,0,0,990.7,1004
133,2024-06-24T02:12:00,0.3,西,1,西,23.8,99.1,0,0,0,30,0,0,990.7,1004
134,2024-06-24T02:13:00,0.3,西北西,1,西,23.9,99.2,0,0,0,30,0,0,990.6,1003.9
135,2024-06-24T02:14:00,0.3,西北西,0.7,南東,23.9,99.2,0,0,0,30,0,0,990.6,1003.9
136,2024-06-24T02:15:00,0.3,西,0.7,南東,23.8,99,0,0,0,30,0,0,990.6,1003.9
137,2024-06-24T02:16:00,0.3,西北西,1.1,東,23.8,99,0,0,0,30,0,0,990.6,1003.9
138,2024-06-24T02:17:00,0.3,西北西,1.1,東,23.9,99.1,0,0,0,30,0,0,990.6,1003.9
139,2024-06-24T02:18:00,0.3,南南東,1.1,東,23.9,99.1,0,0,0,30,0,0,990.6,1003.9
140,2024-06-24T02:19:00,0.3,東南東,1.1,東,23.9,99.1,0,0,0,30,0,0,990.6,1003.9
141,2024-06-24T02:20:00,0.3,東,1.1,東,23.8,99,0,0,0,30,0,0,990.6,1003.9
142,2024-06-24T02:21:00,0.3,東,1.1,東,23.8,99,0,0,0,30,0,0,990.5,1003.8
143,2024-06-24T02:22:00,0.3,東,1.1,東,23.8,99,0,0,0,30,0,0,990.5,1003.8
144,2024-06-24T02:23:00,0.3,東,1.1,東,23.8,99,0,0,0,30,0,0,990.6,1003.9
145,2024-06-24T02:24:00,0.3,東北東,1.1,東,23.7,99,0,0,0,30,0,0,990.6,1003.9
146,2024-06-24T02:25:00,0.3,東北東,1.1,東,23.7,99.1,0,0,0,30,0,0,990.6,1003.9
147,2024-06-24T02:26:00,0.3,北東,0.8,南,23.7,99.1,0,0,0,30,0,0,990.6,1003.9
148,2024-06-24T02:27:00,0.3,北東,0.7,南東,23.6,99.1,0,0,0,30,0,0,990.6,1003.9
149,2024-06-24T02:28:00,0.2,静穏,0.6,北東,23.6,99.1,0,0,0,30,0,0,990.6,1003.9
150,2024-06-24T02:29:00,0.2,静穏,0.6,北東,23.6,99.2,0,0,0,30,0,0,990.7,1004
151,2024-06-24T02:30:00,0.2,静穏,0.5,北,23.6,99.2,0,0,0,30,0,0,990.7,1004
152,2024-06-24T02:31:00,0.2,静穏,0.6,北,23.6,99.3,0,0,0,30,0,0,990.7,1004
153,2024-06-24T02:32:00,0.2,静穏,0.6,北,23.6,99.3,0,0,0,30,0,0,990.7,1004
154,2024-06-24T02:33:00,0.3,北北西,0.8,北,23.6,99.3,0,0,0,30,0,0,990.7,1004
155,2024-06-24T02:34:00,0.3,北北西,0.9,北北東,23.7,99.4,0,0,0,30,0,0,990.7,1004
156,2024-06-24T02:35:00,0.4,北北西,0.9,北北東,23.7,99.4,0,0,0,30,0,0,990.7,1004
157,2024-06-24T02:36:00,0.4,北北西,1.1,北,23.7,99.4,0,0,0,30,0,0,990.7,1004
158,2024-06-24T02:37:00,0.5,北北西,1.2,北,23.6,99.4,0,0,0,30,0,0,990.7,1004
159,2024-06-24T02:38:00,0.5,北,1.2,北,23.6,99.4,0,0,0,30,0,0,990.8,1004.1
160,2024-06-24T02:39:00,0.6,北,1.5,北,23.6,99.4,0,0,0,30,0,0,990.8,1004.1
161,2024-06-24T02:40:00,0.7,北,1.5,北,23.6,99.4,0,0,0,30,0,0,990.8,1004.1
162,2024-06-24T02:41:00,0.7,北,1.5,北,23.6,99.4,0,0,0,30,0,0,990.8,1004.1
163,2024-06-24T02:42:00,0.8,北,1.5,北,23.6,99.4,0,0,0,30,0,0,990.8,1004.1
164,2024-06-24T02:43:00,0.9,北北東,1.5,北,23.6,99.5,0,0,0,30,0,0,990.8,1004.1
165,2024-06-24T02:44:00,0.8,北北東,1.5,北,23.7,99.5,0,0,0,30,0,0,990.9,1004.2
166,2024-06-24T02:45:00,0.8,北北東,1.5,北,23.6,99.5,0,0,0,30,0,0,990.9,1004.2
167,2024-06-24T02:46:00,0.7,北東,1.5,北,23.6,99.5,0,0,0,30,0,0,990.9,1004.2
168,2024-06-24T02:47:00,0.7,北東,1.5,北,23.6,99.5,0,0,0,30,0,0,990.8,1004.1
169,2024-06-24T02:48:00,0.6,北東,1.5,北,23.7,99.5,0,0,0,30,0,0,990.8,1004.1
170,2024-06-24T02:49:00,0.5,北東,1.5,北東,23.7,99.5,0,0,0,30,0,0,990.8,1004.1
171,2024-06-24T02:50:00,0.5,北東,1.5,北東,23.7,99.5,0,0,0,30,0,0,990.9,1004.2
172,2024-06-24T02:51:00,0.5,北北東,1.5,北東,23.7,99.5,0,0,0,30,0,0,990.9,1004.2
173,2024-06-24T02:52:00,0.5,北北西,1.7,西北西,23.6,99.5,0,0,0,30,0,0,990.9,1004.2
174,2024-06-24T02:53:00,0.6,北西,1.9,西北西,23.5,99.3,0,0,0,30,0,0,990.9,1004.2
175,2024-06-24T02:54:00,0.7,西北西,1.9,西北西,23.5,99.4,0,0,0,30,0,0,990.9,1004.2
176,2024-06-24T02:55:00,0.8,西北西,1.9,西北西,23.5,99.3,0,0,0,30,0,0,990.9,1004.2
177,2024-06-24T02:56:00,0.9,西北西,1.9,西北西,23.4,99.3,0,0,0,30,0,0,990.9,1004.2
178,2024-06-24T02:57:00,1,西北西,1.9,西北西,23.4,99.4,0,0,0,30,0,0,990.9,1004.2
179,2024-06-24T02:58:00,1.1,西北西,1.9,西北西,23.4,99.3,0,0,0,30,0,0,990.8,1004.1
180,2024-06-24T02:59:00,1.3,西北西,1.9,西北西,23.4,99.3,0,0,0,30,0,0,990.8,1004.1
181,2024-06-24T03:00:00,1.3,西北西,1.9,西北西,23.4,99.4,0,0,0,30,0,0,990.9,1004.2
182,2024-06-24T03:01:00,1.4,西北西,1.9,西北西,23.4,99.4,0,0,0,30,0,0,990.9,1004.2
183,2024-06-24T03:02:00,1.4,西北西,1.9,西北西,23.3,99.4,0,0,0,30,0,0,990.9,1004.2
184,2024-06-24T03:03:00,1.3,西北西,1.8,西北西,23.3,99.4,0,0,0,30,0,0,990.9,1004.2
185,2024-06-24T03:04:00,1.3,西北西,1.7,西北西,23.3,99.4,0,0,0,30,0,0,990.9,1004.2
186,2024-06-24T03:05:00,1.2,西北西,1.7,西北西,23.3,99.5,0,0,0,30,0,0,990.8,1004.1
187,2024-06-24T03:06:00,1.2,西北西,1.7,西北西,23.3,99.5,0,0,0,30,0,0,990.9,1004.2
188,2024-06-24T03:07:00,1.2,西北西,1.7,西北西,23.3,99.5,0,0,0,30,0,0,990.9,1004.2
189,2024-06-24T03:08:00,1.2,西北西,1.6,西北西,23.4,99.6,0,0,0,30,0,0,991,1004.3
190,2024-06-24T03:09:00,1.2,西北西,1.5,北西,23.4,99.6,0,0,0,30,0,0,991,1004.3
191,2024-06-24T03:10:00,1.1,西北西,1.5,北西,23.4,99.6,0,0,0,30,0,0,991,1004.3
192,2024-06-24T03:11:00,1,西北西,1.5,北西,23.4,99.6,0,0,0,30,0,0,991,1004.3
193,2024-06-24T03:12:00,0.9,西北西,1.5,北西,23.4,99.6,0,0,0,30,0,0,991.1,1004.4
194,2024-06-24T03:13:00,0.8,西北西,1.5,北西,23.3,99.6,0,0,0,30,0,0,991.1,1004.4
195,2024-06-24T03:14:00,0.8,西北西,1.5,北西,23.4,99.6,0,0,0,30,0,0,991.1,1004.4
196,2024-06-24T03:15:00,0.7,西,1.5,北西,23.4,99.7,0,0,0,30,0,0,991.1,1004.4
197,2024-06-24T03:16:00,0.7,西,1.5,北西,23.5,99.7,0,0,0,30,0,0,991.1,1004.4
198,2024-06-24T03:17:00,0.6,西,1.5,北西,23.4,99.7,0,0,0,30,0,0,991.2,1004.5
199,2024-06-24T03:18:00,0.6,西,1.2,西北西,23.5,99.7,0,0,0,30,0,0,991.2,1004.5
200,2024-06-24T03:19:00,0.6,西,1.4,西北西,23.5,99.7,0,0,0,30,0,0,991.2,1004.5
201,2024-06-24T03:20:00,0.7,西,1.5,西,23.4,99.7,0,0,0,30,0,0,991.1,1004.4
202,2024-06-24T03:21:00,0.8,西,1.5,西,23.4,99.6,0,0,0,30,0,0,991.2,1004.5
203,2024-06-24T03:22:00,0.9,西,1.6,西,23.4,99.6,0,0,0,30,0,0,991.2,1004.5
204,2024-06-24T03:23:00,1,西,1.7,西,23.3,99.5,0,0,0,30,0,0,991.2,1004.5
205,2024-06-24T03:24:00,1,西,1.7,西,23.3,99.5,0,0,0,30,0,0,991.2,1004.5
206,2024-06-24T03:25:00,1.1,西,1.7,西,23.3,99.6,0,0,0,30,0,0,991.2,1004.5
207,2024-06-24T03:26:00,1.1,西,1.7,西,23.4,99.6,0,0,0,30,0,0,991.2,1004.5
208,2024-06-24T03:27:00,1.1,西,1.7,西,23.4,99.7,0,0,0,30,0,0,991.2,1004.5
209,2024-06-24T03:28:00,1.1,西,1.7,西,23.4,99.6,0,0,0,30,0,0,991.2,1004.5
210,2024-06-24T03:29:00,1.1,西,1.9,西,23.3,99.6,0,0,0,30,0,0,991.2,1004.5
211,2024-06-24T03:30:00,1.1,西,1.9,西,23.3,99.6,0,0,0,30,0,0,991.2,1004.5
212,2024-06-24T03:31:00,1.1,西,1.9,西,23.2,99.5,0,0,0,30,0,0,991.2,1004.5
213,2024-06-24T03:32:00,1.1,西,1.9,西,23.2,99.6,0,0,0,30,0,0,991.3,1004.6
214,2024-06-24T03:33:00,1.2,西,1.9,西,23.2,99.6,0,0,0,30,0,0,991.3,1004.6
215,2024-06-24T03:34:00,1.2,西,1.9,西,23.2,99.6,0,0,0,30,0,0,991.3,1004.6
216,2024-06-24T03:35:00,1.2,西,1.9,西,23.2,99.6,0,0,0,30,0,0,991.3,1004.6
217,2024-06-24T03:36:00,1.3,西,2.2,西,23.2,99.6,0,0,0,30,0,0,991.3,1004.6
218,2024-06-24T03:37:00,1.4,西,2.2,西,23.2,99.6,0,0,0,30,0,0,991.4,1004.7
219,2024-06-24T03:38:00,1.5,西,2.7,西,23.2,99.6,0,0,0,30,0,0,991.4,1004.7
220,2024-06-24T03:39:00,1.5,西,2.7,西,23.2,99.6,0,0,0,30,0,0,991.4,1004.7
221,2024-06-24T03:40:00,1.6,西,2.7,西,23.2,99.6,0,0,0,30,0,0,991.4,1004.7
222,2024-06-24T03:41:00,1.6,西,2.7,西,23.1,99.6,0,0,0,30,0,0,991.5,1004.8
223,2024-06-24T03:42:00,1.7,西,2.7,西,23.1,99.6,0,0,0,30,0,0,991.5,1004.8
224,2024-06-24T03:43:00,1.8,西,2.7,西,23.2,99.7,0,0,0,30,0,0,991.5,1004.8
225,2024-06-24T03:44:00,1.8,西,2.7,西,23.1,99.7,0,0,0,30,0,0,991.5,1004.8
226,2024-06-24T03:45:00,1.8,西,2.7,西,23.1,99.7,0,0,0,30,0,0,991.5,1004.8
227,2024-06-24T03:46:00,1.7,西,2.7,西,23.1,99.7,0,0,0,30,0,0,991.5,1004.8
228,2024-06-24T03:47:00,1.6,西北西,2.7,西,23.1,99.7,0,0,0,30,0,0,991.5,1004.8
229,2024-06-24T03:48:00,1.5,西北西,2.5,西,23.1,99.7,0,0,0,30,0,0,991.5,1004.8
230,2024-06-24T03:49:00,1.4,西北西,2.5,西,23.1,99.7,0,0,0,30,0,0,991.5,1004.8
231,2024-06-24T03:50:00,1.2,西北西,2.3,西北西,23.1,99.7,0,0,0,30,0,0,991.6,1004.9
232,2024-06-24T03:51:00,1.1,北西,2.3,西北西,23.2,99.8,0,0,0,30,0,0,991.6,1004.9
233,2024-06-24T03:52:00,0.9,北西,2.3,西北西,23.1,99.7,0,0,0,30,0,0,991.6,1004.9
234,2024-06-24T03:53:00,0.7,北北西,2.1,西,23.1,99.7,0,0,0,30,0,0,991.6,1004.9
235,2024-06-24T03:54:00,0.6,北北西,1.4,西北西,23.2,99.8,0,0,0,30,0,0,991.6,1004.9
236,2024-06-24T03:55:00,0.5,北,1.3,北西,23.2,99.8,0,0,0,30,0,0,991.6,1004.9
237,2024-06-24T03:56:00,0.5,北,1.3,北西,23.2,99.7,0,0,0,30,0,0,991.6,1004.9
238,2024-06-24T03:57:00,0.5,北北東,1.2,北西,23.2,99.7,0,0,0,30,0,0,991.6,1004.9
239,2024-06-24T03:58:00,0.4,北北東,0.9,北東,23.1,99.8,0,0,0,30,0,0,991.6,1004.9
240,2024-06-24T03:59:00,0.4,北東,0.9,北東,23.2,99.8,0,0,0,30,0,0,991.6,1004.9
241,2024-06-24T04:00:00,0.5,北東,0.9,北東,23.1,99.8,0,0,0,30,0,0,991.6,1004.9
242,2024-06-24T04:01:00,0.5,北東,0.9,北東,23.1,99.7,0,0,0,30,0,0,991.6,1004.9
243,2024-06-24T04:02:00,0.5,北東,0.9,北東,23.1,99.7,0,0,0,30,0,0,991.6,1004.9
244,2024-06-24T04:03:00,0.5,北東,0.9,北東,23.1,99.8,0,0,0,30,0,0,991.7,1005
245,2024-06-24T04:04:00,0.5,北東,0.9,北東,23.1,99.8,0,0,0,30,0,0,991.7,1005
246,2024-06-24T04:05:00,0.5,北北東,0.9,北東,23,99.8,0,0,0,30,0,0,991.6,1004.9
247,2024-06-24T04:06:00,0.4,北北東,0.9,北東,23,99.7,0,0,0,30,0,0,991.7,1005
248,2024-06-24T04:07:00,0.4,北,0.7,東北東,23.1,99.8,0,0,0,30,0,0,991.7,1005
249,2024-06-24T04:08:00,0.3,北,0.7,東北東,23.1,99.8,0,0,0,30,0,0,991.7,1005
250,2024-06-24T04:09:00,0.3,北,0.7,東北東,23.1,99.8,0,0,0,30,0,0,991.8,1005.1
251,2024-06-24T04:10:00,0.2,静穏,0.6,北,23.1,99.8,0,0,0,30,0,0,991.8,1005.1
252,2024-06-24T04:11:00,0.3,北北西,0.7,北北東,23.1,99.9,0,0,0,30,0,0,991.8,1005.1
253,2024-06-24T04:12:00,0.2,静穏,0.7,北北東,23.1,99.9,0,0,0,30,0,0,991.9,1005.2
254,2024-06-24T04:13:00,0.2,静穏,0.7,北北東,23,99.8,0,0,0,30,0,0,991.9,1005.2
255,2024-06-24T04:14:00,0.2,静穏,0.7,北北東,23,99.9,0,0,0,30,0,0,991.9,1005.2
256,2024-06-24T04:15:00,0.2,静穏,0.7,北北東,23,99.9,0,0,0,30,0,0,991.9,1005.2
257,2024-06-24T04:16:00,0.2,静穏,0.7,北北東,23,99.9,0,0,0,30,0,0,991.9,1005.2
258,2024-06-24T04:17:00,0.2,静穏,0.7,北北東,23,99.9,0,0,0,30,0,0,991.9,1005.2
259,2024-06-24T04:18:00,0.2,静穏,0.7,北北東,23,99.9,0,0,0,30,0,0,991.9,1005.2
260,2024-06-24T04:19:00,0.2,静穏,0.7,北北東,23,99.9,0,0,0,30,0,0,991.9,1005.2
261,2024-06-24T04:20:00,0.2,静穏,0.7,北北東,23,99.9,0,0,0,30,0,0,991.9,1005.2
262,2024-06-24T04:21:00,0.2,静穏,0.7,西,23,100,0,0,0,30,0,0,991.9,1005.2
263,2024-06-24T04:22:00,0.2,静穏,0.8,西,23,100,0,0,0,30,0,0,992,1005.3
264,2024-06-24T04:23:00,0.3,北西,0.8,西,23,100,0,0,0,30,0,0,992,1005.3
265,2024-06-24T04:24:00,0.3,西北西,0.8,西,23,100,0,0,0,30,0,0,992,1005.3
266,2024-06-24T04:25:00,0.3,西北西,0.8,西,23,100,0,0,0,30,0,0,992,1005.3
267,2024-06-24T04:26:00,0.4,西北西,0.8,西,23.1,100,0,0,0,30,0,0,992.1,1005.4
268,2024-06-24T04:27:00,0.5,西北西,0.8,西,23.1,100,0,0,0,30,0,0,992.1,1005.4
269,2024-06-24T04:28:00,0.5,西北西,0.8,西,23.2,100,0,0,0,30,0,0,992.1,1005.4
270,2024-06-24T04:29:00,0.5,西北西,0.8,西,23.2,100,0,0,0,30,0,0,992.1,1005.4
271,2024-06-24T04:30:00,0.6,西北西,0.8,西,23.2,100,0,0,0,30,0,0,992.1,1005.4
272,2024-06-24T04:31:00,0.6,西北西,1.1,西,23.1,100,0,0,0,30,0,0,992.1,1005.4
273,2024-06-24T04:32:00,0.6,西北西,1.1,西,23.1,100,0,0,0,30,0,0,992.2,1005.5
274,2024-06-24T04:33:00,0.6,西北西,1.1,西,23.1,100,0,0,0,30,0,0,992.1,1005.4
275,2024-06-24T04:34:00,0.6,西北西,1.1,西,23.1,100,0,0,0,30,0,0,992.2,1005.5
276,2024-06-24T04:35:00,0.5,西北西,1.1,西,23.1,100,0,0,0,30,0,0,992.1,1005.4
277,2024-06-24T04:36:00,0.5,西北西,1.1,西,23,100,0,0,0,30,0,0,992.2,1005.5
278,2024-06-24T04:37:00,0.6,西北西,1.4,北西,23.1,100,0,0,0,30,0,0,992.2,1005.5
279,2024-06-24T04:38:00,0.6,西北西,1.4,北西,23,100,0,0,0,30,0,0,992.2,1005.5
280,2024-06-24T04:39:00,0.6,西北西,1.4,北西,23,100,0,0,0,30,0,0,992.2,1005.5
281,2024-06-24T04:40:00,0.6,西北西,1.4,北西,22.9,100,0,0,0,30,0,0,992.2,1005.5
282,2024-06-24T04:41:00,0.6,西北西,1.4,北西,23,100,0,0,0,30,0,0,992.2,1005.5
283,2024-06-24T04:42:00,0.6,西北西,1.4,北西,23,100,0,0,0,30,0,0,992.2,1005.5
284,2024-06-24T04:43:00,0.6,西北西,1.4,北西,22.9,100,0,0,0,30,0,0,992.3,1005.6
285,2024-06-24T04:44:00,0.6,西北西,1.4,北西,22.9,99.9,0,0,0,30,0,0,992.2,1005.5
286,2024-06-24T04:45:00,0.6,西北西,1.4,北西,22.9,99.9,0,0,0,30,0,0,992.2,1005.5
287,2024-06-24T04:46:00,0.6,西,1.4,北西,22.9,99.9,0,0,0,30,0,0,992.2,1005.5
288,2024-06-24T04:47:00,0.5,西,1.1,西南西,22.9,99.9,0,0,0,30,0,0,992.2,1005.5
289,2024-06-24T04:48:00,0.4,西,1.1,西南西,22.9,99.9,0,0,0,30,0,0,992.2,1005.5
290,2024-06-24T04:49:00,0.5,西,1.5,西,23,100,0,0,0,30,0,0,992.2,1005.5
291,2024-06-24T04:50:00,0.5,西,1.5,西,23,100,0,0,0,30,0,0,992.2,1005.5
292,2024-06-24T04:51:00,0.4,西,1.5,西,23,100,0,0,0,30,0,0,992.2,1005.5
293,2024-06-24T04:52:00,0.4,西北西,1.5,西,23,100,0,0,0,30,0,0,992.2,1005.5
294,2024-06-24T04:53:00,0.4,西北西,1.5,西,23.1,100,0,0,0,30,0,0,992.2,1005.5
295,2024-06-24T04:54:00,0.4,西北西,1.5,西,23.1,100,0,0,0,30,0,0,992.2,1005.5
296,2024-06-24T04:55:00,0.4,西,1.5,西,23,99.9,0,0,0,30,0,0,992.3,1005.6
297,2024-06-24T04:56:00,0.4,西,1.5,西,23,99.9,0,0,0,30,0,0,992.3,1005.6
298,2024-06-24T04:57:00,0.4,西,1.5,西,23,99.9,0,0,0,30,0,0,992.3,1005.6
299,2024-06-24T04:58:00,0.4,西,1.5,西,23,99.8,0,0,0,30,0,0,992.3,1005.6
300,2024-06-24T04:59:00,0.3,西,1.2,西,23,99.9,0,0,0,30,0,0,992.4,1005.7
301,2024-06-24T05:00:00,0.3,西,1.1,西,23,99.8,0,0,0,30,0,0,992.4,1005.7
302,2024-06-24T05:01:00,0.3,西北西,1.1,西,23,99.8,0,0,0,30,0,0,992.4,1005.7
303,2024-06-24T05:02:00,0.3,西,1.1,西,22.9,99.8,0,0,0,30,0.01,0,992.4,1005.7
304,2024-06-24T05:03:00,0.3,西,0.8,北西,22.9,99.8,0,0,0,30,0.01,0,992.4,1005.7
305,2024-06-24T05:04:00,0.3,西,0.8,北西,22.9,99.8,0,0,0,30,0.01,0,992.4,1005.7
306,2024-06-24T05:05:00,0.3,西,0.8,北西,22.9,99.8,0,0,0,30,0.01,0,992.4,1005.7
307,2024-06-24T05:06:00,0.3,西北西,0.8,北西,22.9,99.8,0,0,0,30,0.01,0,992.4,1005.7
308,2024-06-24T05:07:00,0.3,西北西,0.8,北西,23,99.8,0,0,0,30,0.01,0,992.4,1005.7
309,2024-06-24T05:08:00,0.4,西北西,0.8,北西,23,99.9,0,0,0,30,0.01,0,992.5,1005.8
310,2024-06-24T05:09:00,0.4,西北西,1,西,23,99.9,0,0,0,30,0.01,0,992.5,1005.8
311,2024-06-24T05:10:00,0.4,西北西,1.2,西,22.9,99.8,0,0,0,30,0.01,0,992.6,1005.9
312,2024-06-24T05:11:00,0.5,西,1.2,西,22.9,99.8,0,0,0,30,0.01,0,992.6,1005.9
313,2024-06-24T05:12:00,0.5,西北西,1.2,西,22.9,99.8,0,0,0,30,0.01,0,992.5,1005.8
314,2024-06-24T05:13:00,0.6,西北西,1.2,西,22.9,99.7,0,0,0,30,0.01,0,992.6,1005.9
315,2024-06-24T05:14:00,0.6,西北西,1.2,西,22.8,99.7,0,0,0,30,0.02,0,992.6,1006
316,2024-06-24T05:15:00,0.6,西北西,1.2,西,22.8,99.8,0,0,0,30,0.02,0,992.6,1006
317,2024-06-24T05:16:00,0.6,西北西,1.2,西,22.8,99.8,0,0,0,30,0.02,0,992.6,1006
318,2024-06-24T05:17:00,0.6,西,1.2,西,22.9,99.8,0,0,0,30,0.02,0,992.6,1005.9
319,2024-06-24T05:18:00,0.6,西,1.2,西,23,99.9,0,0,0,30,0.02,0,992.7,1006
320,2024-06-24T05:19:00,0.6,西北西,1.2,西,23,100,0,0,0,30,0.02,0,992.6,1005.9
321,2024-06-24T05:20:00,0.5,西北西,1.2,西北西,23.1,100,0,0,0,30,0.02,0,992.6,1005.9
322,2024-06-24T05:21:00,0.5,西北西,1.2,西北西,23.1,100,0,0,0,30,0.03,0,992.7,1006
323,2024-06-24T05:22:00,0.4,北西,0.8,西北西,23.1,100,0,0,0,30,0.03,0,992.7,1006
324,2024-06-24T05:23:00,0.3,北西,0.8,西北西,23.1,99.9,0,0,0,30,0.03,0,992.7,1006
325,2024-06-24T05:24:00,0.4,北西,0.8,西北西,23.1,99.9,0,0,0,30,0.03,0,992.7,1006
326,2024-06-24T05:25:00,0.4,西北西,0.8,西北西,23,99.9,0,0,0,30,0.03,0,992.7,1006
327,2024-06-24T05:26:00,0.3,西北西,0.8,西北西,23,99.9,0,0,0,30,0.03,0,992.7,1006
328,2024-06-24T05:27:00,0.3,西北西,0.8,西北西,23,99.9,0,0,0,30,0.04,0,992.7,1006